This demonstration page uses our WeatherBlox Daily Observations layout. Learn more.

Left ArrowRight Arrow

Hourly Observations for October 8, 2021

Temp ( °F °C ) Dew Point ( °F °C ) Humidity (%) Winds ( mph kmh ) Pressure ( in mb ) Visibility ( mi km ) Precip ( " mm )
12:53 am 00:53 Clear 62 16.7 55 12.8 78 78 SSE 8 13 29.93 1013 10 16 N/A
1:53 am 01:53 Clear 61 16.1 55 12.8 81 81 SSE 8 13 29.92 1013 10 16 N/A
2:53 am 02:53 Clear 60 15.6 55 12.8 84 84 SSE 8 13 29.91 1013 10 16 N/A
3:53 am 03:53 Clear 59 15 54 12.2 83 83 SSE 8 13 29.90 1013 10 16 N/A
4:53 am 04:53 Clear 58 14.4 54 12.2 87 87 SE 5 7 29.89 1012 10 16 N/A
5:53 am 05:53 Clear 56 13.3 53 11.7 90 90 SE 5 7 29.90 1013 10 16 N/A
6:53 am 06:53 Clear 55 12.8 53 11.7 93 93 SE 3 6 29.91 1013 10 16 N/A
7:53 am 07:53 Sunny with Mist and Fog 52 11.1 52 11.1 100 100 N N/A 29.93 1013 3 4 N/A
8:05 am 08:05 Sunny with Mist and Fog 55 12.8 53 11.7 93 93 N N/A 29.94 1014 3 5 N/A
8:12 am 08:12 Sunny with Mist and Fog 55 12.8 53 11.7 93 93 N N/A 29.95 1014 2 3 N/A
8:22 am 08:22 Sunny with Mist and Fog 53 11.7 51 10.6 93 93 N N/A 29.96 1014 5 8 N/A
8:53 am 08:53 Sunny 58 14.4 55 12.8 90 90 N N/A 29.94 1014 8 13 N/A
9:53 am 09:53 Sunny 63 17.2 56 13.3 78 78 VRB 3 6 29.94 1014 10 16 N/A
10:53 am 10:53 Sunny 70 21.1 57 13.9 64 64 NNW 7 11 29.93 1014 10 16 N/A
11:53 am 11:53 Sunny 75 23.9 57 13.9 54 54 NNW 6 9 29.93 1014 10 16 N/A
12:53 pm 12:53 Sunny 79 26.1 56 13.3 45 45 VRB 6 9 29.91 1013 10 16 N/A
1:53 pm 13:53 Sunny 82 27.8 56 13.3 41 41 undefined N/A 29.88 1012 10 16 N/A
2:53 pm 14:53 Sunny 84 28.9 56 13.3 38 38 VRB 3 6 29.86 1011 10 16 N/A
3:53 pm 15:53 Sunny 84 28.9 55 12.8 37 37 VRB 7 11 29.84 1011 10 16 N/A
4:53 pm 16:53 Sunny 84 28.9 55 12.8 37 37 VRB 3 6 29.84 1010 10 16 N/A
5:53 pm 17:53 Sunny 83 28.3 55 12.8 38 38 E 7 11 29.83 1010 10 16 N/A
6:53 pm 18:53 Sunny 78 25.6 55 12.8 45 45 SE 5 7 29.85 1011 8 13 N/A
7:53 pm 19:53 Clear 77 25 55 12.8 47 47 N N/A 29.86 1011 10 16 N/A
8:53 pm 20:53 Clear 74 23.3 55 12.8 52 52 SE 3 6 29.85 1011 10 16 N/A
9:53 pm 21:53 Clear 74 23.3 56 13.3 54 54 SSE 6 9 29.84 1011 10 16 N/A
10:53 pm 22:53 Clear 72 22.2 56 13.3 57 57 SSE 7 11 29.83 1010 10 16 N/A
11:53 pm 23:53 Clear 70 21.1 57 13.9 64 64 S 6 9 29.83 1010 10 16 N/A

Powered by AerisWeather